[[{"header":{"parameterUnit":"m.s-1","parameterCategory":1,"la1":30.2991,"la2":30.254,"lo1":-89.0895,"lo2":-89.0444,"dy":0.0017,"dx":0.0017,"nx":28,"ny":28,"refTime":"2023-10-29T09:00:00:Z","depth":0,"parameterNumber":2,"parameterNumberName":"U-component_of_WINDS"},"data":[0,0,0,0,0,0,0,0,0,0,0,0,0,0,0,0,0,0,0,0,0,0,0,0,0,0,0,0,0,0,0,0,0,0,0,0,0,0,0,0,0,0,0,0,0,0,0,0,0,0,0,0,0,0,0,0,0,0,-1.4911,-1.4911,0,-1.4895,-1.4895,-1.4895,-1.4838,-1.4837,-1.4836,-1.4835,-1.482,-1.4821,-1.4822,0,0,0,0,0,0,0,0,0,0,0,0,0,-1.4895,-1.4896,-1.4911,-1.4911,-1.4911,-1.4895,-1.4895,-1.4895,-1.4839,-1.4837,-1.4836,-1.4834,-1.482,-1.4821,-1.4822,0,0,0,0,0,0,0,0,0,0,0,0,0,-1.4893,-1.4896,-1.4911,-1.4881,-1.4878,-1.4895,-1.4895,-1.4895,-1.4839,-1.4837,-1.4835,-1.4833,-1.482,-1.4821,-1.4822,-1.4868,0,0,-1.4826,-1.4826,0,0,0,0,0,0,0,0,-1.4893,-1.4894,-1.4886,-1.4883,-1.488,-1.4867,-1.4884,-1.4886,-1.484,-1.4854,-1.4835,-1.4832,-1.4837,-1.4837,-1.4838,-1.4867,-1.4866,-1.4826,-1.4827,-1.4827,-1.4827,0,0,0,0,0,0,0,-1.4894,-1.4894,-1.4905,-1.4886,-1.4882,-1.4869,-1.4866,-1.4884,-1.4857,-1.4853,-1.4848,-1.4847,-1.4836,-1.4837,-1.4838,-1.4866,-1.4826,-1.4827,-1.4828,-1.4828,-1.4931,-1.4933,0,0,0,0,0,0,-1.4898,-1.4895,-1.4905,-1.4904,-1.4882,-1.4871,-1.4868,-1.4873,-1.4856,-1.4852,-1.4849,-1.4845,-1.4836,-1.4836,-1.4837,-1.4888,-1.4827,-1.4828,-1.4829,-1.4929,-1.4931,-1.4934,0,0,0,0,0,0,-1.4898,-1.4899,-1.4906,-1.4898,-1.4898,-1.4873,-1.4879,-1.4874,-1.4875,-1.4853,-1.4849,-1.4855,-1.4835,-1.4835,-1.486,-1.4887,-1.4829,-1.483,-1.4927,-1.493,-1.4932,-1.4992,0,0,0,0,0,0,-1.4898,-1.49,-1.4916,-1.4899,-1.4899,-1.4929,-1.4881,-1.4875,-1.4877,-1.4872,-1.4858,-1.4854,-1.4833,-1.4859,-1.4861,-1.4888,-1.4831,-1.4924,-1.4928,-1.4931,-1.4988,-1.4997,-1.5005,0,0,0,0,0,-1.4897,-1.4935,-1.4917,-1.4919,-1.4919,-1.4931,-1.4931,-1.4905,-1.488,-1.4896,-1.4882,-1.4855,-1.4884,-1.4862,-1.4864,-1.4891,-1.4922,-1.4927,-1.4931,-1.4984,-1.4995,-1.5005,0,0,0,0,0,0,-1.4957,-1.4932,-1.4913,-1.4945,-1.4941,-1.4921,-1.4942,-1.4918,-1.4921,-1.4915,-1.4884,-1.4882,-1.4911,-1.4904,-1.4879,-1.4934,-1.4898,-1.4904,-1.4938,-1.4948,-1.4957,-1.4957,-1.4832,0,0,0,0,0,-1.4973,-1.4984,-1.4962,-1.4994,-1.4992,-1.4968,-1.4972,-1.4952,-1.4946,-1.4944,-1.4932,-1.4928,-1.4936,-1.4942,-1.4948,-1.4987,-1.4983,-1.5007,-1.5015,-1.5022,-1.5027,-1.5046,-1.5057,-1.4948,-1.4948,-1.4948,0,0,-1.5008,-1.4996,-1.5005,-1.5005,-1.4999,-1.5012,-1.4966,-1.4982,-1.499,-1.4947,-1.4969,-1.496,-1.4953,-1.4985,-1.4999,-1.498,-1.5056,-1.5028,-1.5034,-1.5035,-1.5052,-1.5062,-1.5071,-1.4951,-1.4951,-1.495,0,0,-1.5078,-1.507,-1.5095,-1.509,-1.5081,-1.5064,-1.507,-1.5054,-1.5046,-1.5068,-1.5035,-1.5046,-1.5061,-1.5057,-1.5057,-1.5125,-1.51,-1.5128,-1.5173,-1.5192,-1.52,-1.5208,-1.5231,-1.524,-1.5133,-1.5133,-1.5133,0,-1.5123,-1.514,-1.5111,-1.5128,-1.5129,-1.5089,-1.5113,-1.511,-1.5104,-1.5106,-1.5085,-1.5102,-1.5095,-1.5125,-1.5141,-1.5143,-1.5149,-1.5129,-1.5201,-1.5208,-1.5215,-1.5237,-1.5246,-1.5137,-1.5136,-1.5136,-1.5136,0,-1.5195,-1.5207,-1.5228,-1.5222,-1.5225,-1.5246,-1.5221,-1.5228,-1.5208,-1.5194,-1.5217,-1.5206,-1.521,-1.5215,-1.5197,-1.5243,-1.5231,-1.5207,-1.517,-1.5229,-1.5249,-1.5257,-1.5142,-1.514,-1.5139,-1.5139,0,0,-1.5302,-1.5279,-1.5287,-1.5283,-1.527,-1.5279,-1.5299,-1.5301,-1.5307,-1.5305,-1.532,-1.5333,-1.5309,-1.5309,-1.529,-1.5307,-1.5361,-1.528,-1.5279,-1.5294,-1.541,-1.5428,-1.5438,-1.5344,-1.5346,-1.5347,-1.541,0,-1.5367,-1.5397,-1.5372,-1.5407,-1.5418,-1.538,-1.5397,-1.5391,-1.5378,-1.5386,-1.5372,-1.5381,-1.535,-1.535,-1.5365,-1.5351,-1.5383,-1.5346,-1.5358,-1.5358,-1.536,-1.5449,-1.5468,-1.5529,-1.5418,-1.5419,-1.542,0,-1.5448,-1.5447,-1.5484,-1.5467,-1.5471,-1.5486,-1.5486,-1.5493,-1.5486,-1.5475,-1.5475,-1.5451,-1.5469,-1.5434,-1.5458,-1.5433,-1.5437,-1.5431,-1.5432,-1.5432,-1.5392,-1.545,-1.5547,-1.5556,-1.5432,-1.5432,-1.5431,0,-1.5521,-1.553,-1.5552,-1.555,-1.5532,-1.5544,-1.5537,-1.5528,-1.553,-1.553,-1.5532,-1.5534,-1.5536,-1.5538,-1.5516,-1.5492,-1.5543,-1.5505,-1.5534,-1.5535,-1.5546,-1.5546,-1.5645,-1.555,-1.555,-1.555,-1.555,0,-1.5596,-1.562,-1.5584,-1.5598,-1.5623,-1.5594,-1.562,-1.5609,-1.5601,-1.5612,-1.5581,-1.5592,-1.5562,-1.557,-1.5553,-1.5575,-1.5576,-1.5568,-1.5563,-1.5571,-1.5571,-1.5572,-1.5567,-1.5552,-1.5552,-1.5551,-1.5551,0,-1.5682,-1.5659,-1.5681,-1.5662,-1.5658,-1.5677,-1.5661,-1.5673,-1.5658,-1.5672,-1.5674,-1.5651,-1.5659,-1.5637,-1.5642,-1.563,-1.5662,-1.5651,-1.5664,-1.5661,-1.569,-1.5688,-1.5792,-1.5804,-1.5703,-1.5704,-1.5705,0,-1.5731,-1.5748,-1.573,-1.5735,-1.573,-1.5738,-1.574,-1.5712,-1.5716,-1.5708,-1.5721,-1.5727,-1.5729,-1.5744,-1.5728,-1.5732,-1.572,-1.5756,-1.572,-1.5727,-1.5719,-1.5718,-1.572,-1.5764,-1.5765,-1.5766,-1.5767,0,-1.5821,-1.5809,-1.5812,-1.5812,-1.5816,-1.5815,-1.5811,-1.5817,-1.5787,-1.5793,-1.58,-1.5803,-1.5807,-1.5813,-1.5813,-1.5806,-1.5782,-1.5778,-1.5785,-1.5792,-1.5799,-1.5795,-1.5684,-1.5776,-1.5775,-1.5774,-1.5774,-1.5773,-1.5889,-1.5902,-1.5891,-1.5897,-1.5891,-1.5888,-1.5898,-1.5884,-1.589,-1.589,-1.5874,-1.5884,-1.5876,-1.5873,-1.5869,-1.5878,-1.5861,-1.5871,-1.5873,-1.5876,-1.5881,-1.5798,-1.5878,-1.5877,-1.5877,-1.5877,-1.5877,0,-1.5977,-1.5967,-1.5973,-1.5968,-1.5973,-1.5948,-1.5943,-1.5948,-1.5958,-1.5952,-1.5955,-1.5963,-1.5968,-1.5952,-1.5955,-1.5965,-1.5954,-1.5967,-1.5965,-1.5964,-1.5896,-1.5889,-1.5975,-1.5975,-1.5975,-1.5975,-1.5975,-1.5975,-1.6022,-1.6042,-1.6029,-1.6046,-1.6037,-1.6046,-1.6045,-1.6043,-1.6038,-1.6048,-1.6052,-1.6041,-1.6031,-1.6033,-1.6036,-1.6031,-1.6034,-1.605,-1.6042,-1.5978,-1.5969,-1.596,-1.5953,-1.6051,-1.6052,-1.6109,-1.611,-1.611]},{"header":{"parameterUnit":"m.s-1","parameterCategory":1,"la1":30.2991,"la2":30.254,"lo1":-89.0895,"lo2":-89.0444,"dy":0.0017,"dx":0.0017,"nx":28,"ny":28,"refTime":"2023-10-29T09:00:00:Z","depth":0,"parameterNumber":3,"parameterNumberName":"V-component_of_WINDS"},"data":[0,0,0,0,0,0,0,0,0,0,0,0,0,0,0,0,0,0,0,0,0,0,0,0,0,0,0,0,0,0,0,0,0,0,0,0,0,0,0,0,0,0,0,0,0,0,0,0,0,0,0,0,0,0,0,0,0,0,1.5705,1.5707,0,1.5855,1.5857,1.5858,1.5899,1.5898,1.5897,1.5897,1.6048,1.6053,1.6058,0,0,0,0,0,0,0,0,0,0,0,0,0,1.5456,1.546,1.5705,1.5707,1.5709,1.5855,1.5857,1.5859,1.5899,1.5898,1.5897,1.5896,1.6047,1.6052,1.6058,0,0,0,0,0,0,0,0,0,0,0,0,0,1.558,1.5462,1.5705,1.5747,1.5752,1.5854,1.5857,1.5859,1.59,1.5898,1.5897,1.5896,1.6045,1.6052,1.6059,1.6129,0,0,1.6081,1.6084,0,0,0,0,0,0,0,0,1.5573,1.559,1.5739,1.5744,1.575,1.5857,1.5824,1.595,1.59,1.5844,1.5897,1.5895,1.5985,1.5997,1.6028,1.6136,1.6143,1.6082,1.6086,1.6089,1.6091,0,0,0,0,0,0,0,1.5565,1.5583,1.5764,1.5741,1.5748,1.5758,1.5775,1.5848,1.592,1.5848,1.5852,1.5869,1.5988,1.6021,1.6032,1.6145,1.6081,1.6088,1.6092,1.6095,1.6322,1.6324,0,0,0,0,0,0,1.5549,1.5576,1.576,1.5769,1.5657,1.5764,1.5782,1.5824,1.5919,1.5932,1.587,1.587,1.6009,1.6024,1.6038,1.6129,1.6089,1.6096,1.61,1.632,1.6322,1.6324,0,0,0,0,0,0,1.5543,1.5565,1.5754,1.5673,1.5698,1.577,1.5816,1.5828,1.5861,1.5935,1.5948,1.589,1.6009,1.6027,1.6107,1.6135,1.6099,1.6106,1.6318,1.6321,1.6323,1.631,0,0,0,0,0,0,1.5536,1.5563,1.559,1.5674,1.5702,1.582,1.5818,1.5832,1.5873,1.5875,1.5958,1.5971,1.6009,1.6096,1.6114,1.6144,1.6111,1.6316,1.6319,1.6322,1.6309,1.6312,1.6315,0,0,0,0,0,1.5527,1.5579,1.5591,1.5613,1.5738,1.5822,1.5838,1.5882,1.5875,1.5904,1.5952,1.5968,1.6128,1.6104,1.6125,1.6157,1.6315,1.6319,1.6322,1.6307,1.6311,1.6315,0,0,0,0,0,0,1.5495,1.5591,1.5605,1.5686,1.5746,1.5829,1.5866,1.5885,1.5947,1.5947,1.5998,1.6017,1.6093,1.6133,1.6104,1.6232,1.6222,1.623,1.6203,1.6208,1.6211,1.6201,1.6117,0,0,0,0,0,1.5498,1.5558,1.5638,1.5702,1.5731,1.5793,1.5831,1.5861,1.5924,1.5949,1.6004,1.6065,1.6129,1.6171,1.6234,1.6314,1.6334,1.6347,1.635,1.6352,1.6359,1.6408,1.6415,1.6337,1.6336,1.6336,0,0,1.5503,1.5563,1.5598,1.5697,1.5747,1.5809,1.5814,1.5878,1.5926,1.5959,1.6039,1.608,1.6152,1.6233,1.6272,1.6269,1.6386,1.6357,1.6359,1.6364,1.6412,1.642,1.6426,1.6339,1.6339,1.6338,0,0,1.5546,1.5596,1.5656,1.5707,1.5783,1.5824,1.5838,1.5919,1.5949,1.603,1.6057,1.6113,1.6223,1.6274,1.6314,1.6378,1.6396,1.6397,1.6415,1.6461,1.6468,1.6473,1.6499,1.6507,1.6404,1.6404,1.6404,0,1.5543,1.5638,1.5684,1.5749,1.5793,1.5828,1.589,1.5936,1.6028,1.6058,1.6053,1.6194,1.6244,1.6339,1.6355,1.6385,1.6405,1.6389,1.6463,1.6469,1.6475,1.65,1.6509,1.6404,1.6404,1.6404,1.6404,0,1.5632,1.5698,1.5737,1.5827,1.5875,1.5938,1.5995,1.6038,1.6064,1.6106,1.6189,1.6251,1.6329,1.6353,1.6377,1.6452,1.6449,1.6453,1.6444,1.6482,1.6506,1.6516,1.6403,1.6403,1.6403,1.6403,0,0,1.5658,1.5775,1.5789,1.5832,1.5919,1.5971,1.6036,1.6113,1.615,1.6213,1.627,1.6363,1.6369,1.6414,1.6445,1.6485,1.6536,1.6485,1.6488,1.6494,1.6626,1.6623,1.6633,1.6548,1.655,1.6552,1.662,0,1.5713,1.5832,1.5877,1.5974,1.6036,1.6071,1.6128,1.6188,1.623,1.6289,1.6334,1.6401,1.6401,1.643,1.6471,1.6521,1.6563,1.6516,1.6603,1.6605,1.6586,1.6646,1.6643,1.6705,1.663,1.6631,1.6633,0,1.5793,1.5859,1.5962,1.6045,1.6073,1.6123,1.62,1.6255,1.6325,1.6352,1.6405,1.6434,1.6504,1.649,1.6589,1.6556,1.6594,1.6624,1.6628,1.6639,1.6622,1.666,1.6725,1.6735,1.6648,1.6646,1.6645,0,1.5804,1.5919,1.5996,1.6031,1.6129,1.6164,1.6206,1.6275,1.632,1.6386,1.6416,1.6489,1.6529,1.6585,1.6634,1.6618,1.6729,1.6718,1.6755,1.6754,1.6778,1.6776,1.6852,1.6799,1.6799,1.6798,1.6798,0,1.5862,1.5925,1.6003,1.6051,1.6123,1.6175,1.6244,1.6289,1.635,1.6408,1.6441,1.6495,1.6555,1.6616,1.6654,1.6732,1.6749,1.6774,1.6784,1.6773,1.677,1.6799,1.6797,1.6801,1.68,1.68,1.6799,0,1.5887,1.5942,1.603,1.6116,1.6139,1.6189,1.6263,1.6311,1.6355,1.6427,1.6447,1.6516,1.659,1.6644,1.6739,1.6765,1.6849,1.6858,1.6826,1.6831,1.6866,1.6863,1.6965,1.6982,1.6915,1.6916,1.6916,0,1.5921,1.5971,1.6063,1.6105,1.6148,1.6214,1.6261,1.6314,1.6361,1.6445,1.6484,1.6561,1.6626,1.6743,1.6801,1.6875,1.6887,1.6918,1.6898,1.6886,1.689,1.6888,1.6894,1.6921,1.6921,1.6922,1.6922,0,1.5977,1.6002,1.6068,1.6145,1.62,1.6262,1.6325,1.6357,1.6422,1.6473,1.655,1.6601,1.67,1.6776,1.6856,1.69,1.6923,1.6928,1.6941,1.693,1.6911,1.6924,1.6836,1.6925,1.6925,1.6925,1.6924,1.6924,1.6009,1.6056,1.6129,1.6203,1.6256,1.6315,1.6365,1.6416,1.6482,1.6568,1.6595,1.6676,1.6746,1.6856,1.6901,1.6966,1.6965,1.6982,1.6987,1.6991,1.6992,1.6899,1.698,1.698,1.698,1.698,1.698,0,1.6069,1.6118,1.6185,1.6273,1.6331,1.6348,1.6419,1.6467,1.6538,1.6602,1.6666,1.6756,1.6832,1.6897,1.6975,1.7014,1.7026,1.7033,1.7031,1.7042,1.6988,1.697,1.7022,1.7022,1.7022,1.7022,1.7022,1.7022,1.6106,1.6188,1.6222,1.6331,1.638,1.646,1.65,1.6555,1.6607,1.6707,1.677,1.6812,1.6878,1.6962,1.7032,1.7049,1.7077,1.7082,1.7102,1.705,1.7045,1.7041,1.7024,1.7087,1.7087,1.7151,1.7152,1.7152]}]]